Погода в Северо-Енисейском

Россия / Красноярский край     60°22′26″N   93°01′45″E
темп.,
°C
ветер,
м/с
пор.,
м/с
влажн.,
%
обл.,
%
осадки,
мм/ч
давл.,
гПа
погр.,
м
28 февраля, вс
вс2801:00−28зюз4994100 0.1 1031602
04:00−28юз3995100 0.1 1031572
07:00−28юз4994100 0.3 1032621
10:00−27юз4891100 0.1 1032662
13:00−25зюз4887100 0.3 1032781
16:00−24зюз4687100 0.1 1031847
19:00−25юз2698100 0.2 1031189
22:00−26юз1499100 0.1 1031124
1 марта, пн
пн101:00−28ююз1299100 0.1 103120
04:00−29ю1299100 0.0 103019
07:00−31ю119997 0.1 103019
10:00−26юв118950 0.0 1028165
13:00−21св117566 0.0 1026655
16:00−22св2279100 0.0 1024680
19:00−27всв239997 0.0 102459
22:00−30всв119911 0.0 102419
2 марта, вт
вт201:00−31всв119811 0.0 102419
04:00−32всв11980 0.0 102419
07:00−33всв11980 0.0 102519
10:00−28всв128713 0.0 1025206
13:00−23св237314 0.0 1024517
16:00−23св23833 0.0 1024412
19:00−29всв11951 0.0 102619
22:00−31в11950 0.0 102819
3 марта, ср
ср301:00−32вюв11920 0.0 102819
04:00−32вюв11910 0.0 102919
07:00−33вюв11910 0.0 103119
10:00−27вюв12810 0.0 1030217
13:00−21вюв12650 0.0 1030556
16:00−20в22670 0.0 1029668
19:00−26вюв22901 0.0 103119
22:00−28юв229232 0.0 103222
4 марта, чт
чт401:00−29юв229352 0.0 103328
04:00−30юв228948 0.0 103324
07:00−30юв228640 0.0 103435
10:00−26юв247469 0.0 1033214
13:00−20юв246657 0.0 1032398
16:00−18юв367245 0.0 1030427
19:00−25юв249160 0.0 103179
22:00−24юв398698 0.0 1030346